Location: College Park
(38.9810°N, 76.9370°W)
Time: 06:07:50
(UTC-04:00)

Hubble Space Telescope - Pass Details

Date: 04 January 2018
Orbit: 537 x 541 km, 28.5° (Epoch: 24 June)

Event Time Altitude Azimuth Distance (km) Brightness Sun altitude
Exits shadow 05:06:58 13° 175° (S) 1,610 3.3 -26.5°
Maximum altitude 05:07:34 13° 166° (SSE) 1,591 3.4 -26.3°
Drops below altitude 10° 05:09:32 10° 137° (SE) 1,784 4.1 -26.0°
Sets 05:12:50 0° 110° (ESE) 2,675 5.6 -25.3°
